TimeEET,TemperatureF,Dew PointF,Humidity,Sea Level PressureIn,VisibilityMPH,Wind Direction,Wind SpeedMPH,Gust SpeedMPH,PrecipitationIn,Events,Conditions,WindDirDegrees,DateUTC
12:50 AM,28.4,23.0,80,30.06,6.2,NE,11.5,-,N/A,,Mostly Cloudy,50,2013-02-12 22:50:00
1:50 AM,30.2,21.2,69,30.06,6.2,North,11.5,-,N/A,,Mostly Cloudy,360,2013-02-12 23:50:00
2:00 AM,30,21,58,,6,North,11.5,,,,Mostly Cloudy,0,2013-02-13 00:00:00
2:50 AM,30.2,21.2,69,30.06,6.2,North,6.9,-,N/A,,Mostly Cloudy,10,2013-02-13 00:50:00
3:50 AM,28.4,21.2,74,30.06,6.2,NNE,8.1,-,N/A,,Mostly Cloudy,20,2013-02-13 01:50:00
4:50 AM,23.0,17.6,80,30.09,6.2,East,8.1,-,N/A,,Mostly Cloudy,90,2013-02-13 02:50:00
5:50 AM,17.6,12.2,79,30.09,6.2,NNW,6.9,-,N/A,,Mostly Cloudy,330,2013-02-13 03:50:00
6:50 AM,17.6,14.0,86,30.15,6.2,Variable,2.3,-,N/A,,Mostly Cloudy,0,2013-02-13 04:50:00
7:50 AM,19.4,14.0,80,30.15,6.2,Variable,2.3,-,N/A,,Scattered Clouds,0,2013-02-13 05:50:00
8:00 AM,19,15,76,,6,NNW,2.3,,,,Partly Cloudy,330,2013-02-13 06:00:00
8:50 AM,21.2,14.0,74,30.18,6.2,WNW,5.8,-,N/A,,Partly Cloudy,290,2013-02-13 06:50:00
9:50 AM,26.6,17.6,69,30.21,-9999.0,Calm,Calm,-,N/A,,Clear,0,2013-02-13 07:50:00
10:50 AM,26.6,19.4,74,30.21,-9999.0,NW,4.6,-,N/A,,Clear,310,2013-02-13 08:50:00
11:50 AM,32.0,21.2,64,30.18,-9999.0,Calm,Calm,-,N/A,,Clear,0,2013-02-13 09:50:00
12:50 PM,33.8,23.0,65,30.18,-9999.0,Calm,Calm,-,N/A,,Clear,0,2013-02-13 10:50:00
1:50 PM,33.8,21.2,60,30.21,-9999.0,Calm,Calm,-,N/A,,Clear,0,2013-02-13 11:50:00
2:00 PM,33,22,51,,6,Calm,Calm,,,,,,2013-02-13 12:00:00
2:50 PM,33.8,21.2,60,30.21,-9999.0,Calm,Calm,-,N/A,,Clear,0,2013-02-13 12:50:00
3:50 PM,28.4,23.0,80,30.21,-9999.0,Calm,Calm,-,N/A,,Clear,0,2013-02-13 13:50:00
4:50 PM,21.2,15.8,80,30.21,-9999.0,Calm,Calm,-,N/A,,Clear,0,2013-02-13 14:50:00
5:50 PM,19.4,15.8,86,30.24,-9999.0,Calm,Calm,-,N/A,,Clear,0,2013-02-13 15:50:00
6:50 PM,15.8,10.4,79,30.24,-9999.0,ESE,1.2,-,N/A,,Clear,110,2013-02-13 16:50:00
7:50 PM,12.2,8.6,85,30.24,-9999.0,Calm,Calm,-,N/A,,Clear,0,2013-02-13 17:50:00
8:00 PM,12,11,93,,6,Calm,Calm,,,,,,2013-02-13 18:00:00
8:50 PM,8.6,6.8,92,30.24,-9999.0,Calm,Calm,-,N/A,,Clear,0,2013-02-13 18:50:00
9:50 PM,5.0,3.2,92,30.27,-9999.0,Calm,Calm,-,N/A,,Clear,0,2013-02-13 19:50:00
10:50 PM,5.0,3.2,92,30.27,-9999.0,NW,4.6,-,N/A,,Clear,320,2013-02-13 20:50:00
11:50 PM,3.2,1.4,92,30.27,-9999.0,Variable,2.3,-,N/A,,Clear,0,2013-02-13 21:50:00